Regional Weather Roundup
Issued by NWS

Home | Current Version | Previous Version | Text Only | Print | Product List | Glossary Off
Versions: 1 2 3 4 5 6 7 8 9 10 11 12 13 14 15 16 17 18 19 20 21 22 23 24 25 26 27 28 29 30 31 32 33 34 35 36 37 38 39 40 41 42 43 44 45 46 47 48 49 50

000
ASUS43 KMKX 101111
RWRWI

WISCONSIN REGIONAL WEATHER ROUNDUP
NATIONAL WEATHER SERVICE MILWAUKEE/SULLIVAN WI
500 AM CST SAT DEC 10 2016

NOTE: "FAIR" INDICATES FEW OR NO CLOUDS BELOW 12,000 FEET WITH NO
SIGNIFICANT WEATHER AND/OR OBSTRUCTIONS TO VISIBILITY.

WIZ001-002-006>008-014>016-023>028-101200-
NORTHWEST WISCONSIN

CITY           SKY/WX    TMP DP  RH WIND       PRES   REMARKS
SUPERIOR ARPT  CLOUDY     7  -2  65 NW8       30.49S WCI  -5
ASHLAND        LGT SNOW   6   2  83 W7        30.46S FOG     WCI  -6
HAYWARD        CLOUDY     8  -2  63 N5        30.42F WCI   0
SIREN          CLOUDY    10   4  75 W7        30.45S WCI   0
CUMBERLAND     FLURRIES  10   3  72 W7        30.42S WCI   0
RICE LAKE      LGT SNOW  11   7  83 W5        30.45S WCI   3
CHETEK         CLOUDY    10   5  79 W3        30.45S
LADYSMITH      CLOUDY    10   3  71 NW8       30.44S WCI  -1
EAU CLAIRE     CLOUDY    10   3  73 W10       30.46S WCI  -4
MENOMONIE      CLOUDY    11   3  70 W6        30.47F WCI   2
NEW RICHMOND   CLOUDY     6   0  78 W5        30.47S WCI  -3
OSCEOLA        PTCLDY     6   1  80 W5        30.51S WCI  -2
$$

WIZ003>005-009-010-017-018-101200-
NORTH CENTRAL WISCONSIN

CITY           SKY/WX    TMP DP  RH WIND       PRES   REMARKS
MANITOWISH WTR CLOUDY     5  -1  76 W8        30.35S WCI  -8
ARBOR VITAE    CLOUDY     9  -1  63 NW9       30.36S WCI  -4
WOODRUFF       CLOUDY     9  -1  63 NW9       30.36S WCI  -4
RHINELANDER    CLOUDY     9   0  67 W8G16     30.36S WCI  -3
EAGLE RIVER    CLOUDY     6  -2  67 W6        30.34S WCI  -4
LAND O LAKES   CLOUDY     7   0  73 W6        30.35F WCI  -4
PHILLIPS       CLOUDY     6  -2  70 NW6       30.38S WCI  -4
TOMAHAWK       CLOUDY     8   3  78 NW5       30.38S WCI   0
MEDFORD        FLURRIES  10   4  78 W7        30.37F WCI  -2
MERRILL        CLOUDY    11   4  75 NW6       30.39S WCI   1
$$

WIZ029-030-035-036-043>047-101200-
CENTRAL WISCONSIN

CITY           SKY/WX    TMP DP  RH WIND       PRES   REMARKS
WAUSAU         CLOUDY    12   1  61 W9        30.39S WCI   0
MOSINEE        CLOUDY    12   3  67 W7        30.41S WCI   2
MARSHFIELD     CLOUDY    12   4  70 NW8       30.40S WCI   0
STEVENS POINT  CLOUDY    12   4  70 NW8       30.42S WCI   0
WAUPACA        PTCLDY    14   9  81 CALM      30.44S
WAUTOMA        PTCLDY    12   8  84 W7        30.46S WCI   1
WISC RAPIDS    PTCLDY    10   8  92 W7        30.44S WCI  -1
CAMP DOUGLAS   CLEAR      8   4  82 W6        30.46S WCI  -2
$$

WIZ011>013-019>022-031-037>040-048>050-101200-
NORTHEAST WISCONSIN

CITY           SKY/WX    TMP DP  RH WIND       PRES   REMARKS
ANTIGO         CLOUDY    10   4  80 NW9       30.36S WCI  -4
SHAWANO        LGT SNOW  18  13  80 NW5       30.42S WCI  11
OCONTO         CLOUDY    17   9  70 NW5       30.42S WCI  10
STURGEON BAY   FLURRIES  19  11  70 W9        30.40S WCI   8
GREEN BAY      CLOUDY    19   7  59 W9        30.42S WCI   8
MANITOWOC      CLOUDY    18   7  62 W10       30.44R WCI   6
APPLETON       NOT AVBL
CLINTONVILLE   CLOUDY    18  10  73 W7        30.41F WCI   8
OSHKOSH        CLEAR     14   7  73 W5        30.44S WCI   6
$$

WIZ032>034-041-042-053>061-101200-
SOUTHWEST WISCONSIN

CITY           SKY/WX    TMP DP  RH WIND       PRES   REMARKS
LA CROSSE      PTCLDY    11   4  73 W7        30.51F WCI   0
SPARTA         PTCLDY    10   6  85 W3        30.49S
VIROQUA        CLOUDY    11   7  85 W8        30.43F WCI  -1
BOSCOBEL       MOCLDY    16  10  77 W6        30.51S WCI   7
PRAIRIE DU CHI CLOUDY    16  11  80 W3        30.51S
PLATTEVILLE    PTCLDY    16  16  97 W5        30.48F WCI   9
$$

WIZ056-057-062-063-064-067-068-101200-
SOUTH CENTRAL WISCONSIN

CITY           SKY/WX    TMP DP  RH WIND       PRES   REMARKS
REEDSBURG      CLOUDY    13  10  84 NW6       30.46F WCI   4
BARABOO/DELLS  CLOUDY    13   9  84 W5        30.46S WCI   5
LONE ROCK      CLOUDY    16  11  80 W5        30.50R WCI   9
MINERAL POINT  FLURRIES  18  16  93 W5        30.45F WCI  11
MADISON        PTCLDY    15  11  83 W3        30.47S
MIDDLETON      PTCLDY    16  13  89 W5        30.47S WCI   9
WATERTOWN      PTCLDY    15  12  86 W5        30.46S WCI   8
MONROE         CLOUDY    18  14  86 W8        30.46S WCI   7
JANESVILLE     CLOUDY    19  14  79 W6        30.49R WCI  11
$$

WIZ051-052-058>065-066-070>072-101200-
SOUTHEAST WISCONSIN

CITY           SKY/WX    TMP DP  RH WIND       PRES   REMARKS
MILWAUKEE      PTCLDY    19  12  74 W6        30.47S WCI  11
WAUKESHA       MOCLDY    16  12  86 W6        30.46F WCI   7
MILWAUKEE/TIMM CLEAR     18  10  73 W6        30.47S WCI   9
RACINE         MOCLDY    19  12  74 W6        30.49S WCI  11
BURLINGTON     PTCLDY    21  18  86 W3        30.48R
KENOSHA        CLOUDY    18  13  80 W9        30.48R WCI   7
FOND DU LAC    PTCLDY    14   6  70 W5        30.45S WCI   6
SHEBOYGAN      CLEAR     15   8  73 W7        30.44S WCI   5
WEST BEND      MOCLDY    16  12  86 W5        30.44S WCI   9
JUNEAU         LGT SNOW  14  10  83 W6        30.46S WCI   5
$$

LSZ147-162-101200-
LAKE SUPERIOR

STATION/POSITION TIME  TEMP    WIND        PRES    WAVE
                       AIR SEA DIR/SP/G            HT/PER
                 (UTC) (F)     (DEG/KT/KT) (MB)    (FT/S)
DEVILS ISLAND    1100   10     300/ 15/ 19 1032.8R
PORT WING        1030   10     310/ 18/ 22 1031.8S
SAXON HARBOR     1030    9     230/  6/  9 1031.2R
$$

LMZ867-665-643>646-101200-
LAKE MICHIGAN

STATION/POSITION TIME  TEMP    WIND        PRES    WAVE
                       AIR SEA DIR/SP/G            HT/PER
                 (UTC) (F)     (DEG/KT/KT) (MB)    (FT/S)
CHAMBERS ISLAND  1040   18     280/  7/ 15 1028.8R
NORTHPORT PIER   1054   18     280/ 13/ 24 1029.1R
SISTER BAY       1050   19     330/ 22/ 25   N/A
ALGOMA LAKESHORE 1036          280/ 11/ 15   N/A
KEWAUNEE LAKESHO 1042   18     290/  8/ 13 1029.3F
SHEBOYGAN LAKESH 1100   17     260/  8/ 10 1032.1R
PORT WASHINGTON  1040   17     290/  4/  7 1032.5S
KENOSHA   LAKESH 1100   20     270/  6/  9 1031.8
$$

TC  - TEMPERATURE IN CELSIUS
VSB - VISIBILITY IN STATUTE MILES
WCI - WIND CHILL INDEX
HX  - HEAT INDEX




USA.gov is the U.S. government's official web portal to all federal, state and local government web resources and services.